Find Starlink 4190

NORAD ID: 53001 Int'l Des: 2022-076 Owner: SPXS Country: US Constellation: starlink operational
LEOCIRCULAR

現在のビュー

3D地球を読み込み中...

About Starlink 4190

Starlink 4190 (NORAD 53001) is a starlink constellation satellite (v1.5) launched Jul 7, 2022 by SPXS of US. It operates in LEO, CIRCULAR orbit with a mass of 297.00 kg.

Starlink 4190について

説明を読み込み中...

次回通過

Passes for default location (London). Set your location on the main map for personalized predictions.

高度履歴

Loading altitude history...

軌道要素

1 53001U 22076R 26173.83335648 .00060043 00000-0 29861-2 0 9996
2 53001 53.1591 341.8157 0001031 144.8489 155.5586 15.17081293 5789
Epoch: Jun 22, 2026 • Age: 12 hours

現在のステータス

高度 520.3 km
速度 7.61 km/s
衛星直下点 52.07°N, 58.54°E
打ち上げ日 Jul 7, 2022
運用期間 3.9 years
タイプ internet

技術仕様

分類 Payload
質量 297.00 kg
乾燥質量 275.00 kg
総質量 297.00 kg
長さ 0.20 m
直径 2.80 m
スパン 9.00 m
形状 Box + pan
製造者 SPXS
バスタイプ Starlink
フェーズステータス In Orbit
所有者/国 SPXS/US

Most Searched